Showing default

ORBCOMM FM 112, 41184

Orbit data source: Space-Track

ORBCOMM FM 112, 41184 is a payload satellite owned by Orbcomm (US) in LEO that was launched on Tue, 22 Dec 2015 UTC via an FALCON 9 launch vehicle from the Air Force Eastern Test Range (AFETR). Payload-class satellites include a variety of spacecraft equipped with specific instruments for various scientific and technological missions. These include communications satellites like Starlink; space stations such as the ISS; scientific satellites like the Hubble; Earth observation satellites from companies like Planet Labs, Umbra, and HawkEye 360; GPS; miniature CubeSats for education and research; and military/defense satellites.

Loading next visibility...
Identifier
41184, 2015-081F
Orbit
LEO
Last TLE update
17 hours ago
Origin
Manufacturer
SNC Louisville
Mission
Operational Commercial Communications
Bus & Motor
SN-100A, Unknown motor
Mass
172 kg wet, 158 kg dry
Launch date (UTC)
2015-12-22 (10 years ago)
Launch vehicle
FALCON 9
Launch site
Air Force Eastern Test Range (AFETR)
Object type
Payload
Rocket body
Debris
Shape & HBR
Box + 1 Pan + 1 Ant, 13 m
Radar Cross Section
2.222 m², Medium (>0.1 m² and < 1m²)

Expand to show TLE details & history

TLE from 17 hours ago
0 ORBCOMM FM 112
1 41184U 15081F   25182.21796813  .00000803  00000-0  20886-3 0  9996
2 41184  46.9993 129.0340 0001504  24.4157 335.6799 14.58209682507719
Epoch: 2025-07-01T05:13Z
TLE epoch observation values (Epoch: 2025-07-01T05:13:52.446Z)
Latitude
-0.00005°
Longitude
131.04884°
Altitude
698.206 km
Speed
7.509 km/s
True Right ascension
08h 36m 08s
True Declination
0° 00' 00"
Sunlit
Object was in daylight at epoch
Visualization orbit readout
Latitude
11.20794°
Longitude
138.38787°
Altitude
697.372 km
Speed
7.51 km/s
Apparent Right ascension
08h 19m 43s
Apparent Declination
-52° 08' 01"
Sunlit
Object is in daylight
Visualization observer readout
Local Sidereal Time
09:25:01
Azimuth
189.952° SSW
Elevation
-3.139°
Doppler factor
1
Orbital elements
Apogee altitude
701.26 km
Perigee altitude
699.131 km
Semi-major axis
7,078.332 km
Eccentricity
0.00015
Inclination
46.9993°
RAAN
129.034°
Arg. of periapsis
24.4157°
True anomaly
Unknown
Mean anomaly
335.6799°
Eccentric anomaly
Unknown
Mean motion
3.64457 °/min
Orbital period
98.78 mins
BSTAR
0.00020886
Loading maneuver chart data...
Loading SW <> Apogee altitude chart data...
Loading historical data...
Loading historical data...
Loading historical data...
Loading historical data...
Loading historical data...
Loading historical data...
Loading historical data...

ORBCOMM FM 112 Visibility forecast

Observer location: undefined°, undefined°

Span
Click to sort rows by Start time (UTC) header in descending order
Start Az.
Max El. time (UTC)
Max El. Az.
Max El.
End time (UTC)
End Az.
4 mins2025-07-01 21:49:43.322Z155.78° SSE2025-07-01 21:51:43.322Z131.593° SE12.432°2025-07-01 21:53:43.322Z107.257° ESE
8 mins2025-07-01 23:30:43.322Z223.34° SW2025-07-01 23:34:43.322Z134.562° SE41.332°2025-07-01 23:38:43.322Z68.032° E
8 mins2025-07-02 01:14:43.322Z276.417° WNW2025-07-02 01:18:43.322Z3.126° NNE35.209°2025-07-02 01:22:43.322Z57.453° ENE
7 mins2025-07-02 02:59:43.322Z310.201° NW2025-07-02 03:02:43.322Z12.037° NNE30.879°2025-07-02 03:06:43.322Z70.811° E
8 mins2025-07-02 04:42:43.322Z302.529° NW2025-07-02 04:46:43.322Z42.891° NE42.996°2025-07-02 04:50:43.322Z107.287° ESE
7 mins2025-07-02 06:26:43.322Z273.195° WNW2025-07-02 06:29:43.322Z222.976° SW27.215°2025-07-02 06:33:43.322Z162.678° S
|